PEGASUS DEB

Satellite information

Favourite Embed

Satellite Type and Status

DEBRISIN ORBIT

Key statistics

Satellite PEGASUS DEB at a glance.

Uptime

11531

Days in orbit

Revolutions

≈ 14.4

Per day

Orbit

LEO

Low Earth Orbit

Inclination

81.8

Latest

Satellite identification and parameters

Extended collection of information and parameters for PEGASUS DEB.

Object identification

Identified? True

Debris? True

Object name: PEGASUS DEB

International designator: 1994-029AFS

Object number (NORAD): 39919

Object ID (CCSDS): 39919

Country: UNITED STATES OF AMERICA (US)

Current information (Y/N): Y

RCS size: SMALL

Orbital parameters

Period: 99.797 minutes

Inclination: 81.8485 deg

SMA: 7126.989 km

Apoapsis: 933.575 km

Periapsis: 564.132 km

RAAN: 273.7438 deg

Eccentricy: 0.0259186

Argument of periapsis: 132.5209 deg

Mean anomaly: 229.8195 deg

Mean motion: 14.42924619 rev/day

Mean motion (dot): 0.00003406 rev/day2

B* drag term: 0.00067287 1/REarth

Two-line elements (TLE)

Creation date: Dec. 9, 2025, 12:26 a.m.

Reference frame: TEME

Reference center: EARTH

Epoch: Dec. 8, 2025, 1:19 p.m. UTC

TLE line 0: 0 PEGASUS DEB

TLE line 1: 1 39919U 94029AFS 25342.55521267 .00003406 00000-0 67287-3 0 9990

TLE line 2: 2 39919 81.8485 273.7438 0259186 132.5209 229.8195 14.42924619602303

Live tracking on map

Real-time ground track for satellite PEGASUS DEB.

In-orbit conjunctions

A list of the most updated potential collisions computed for object PEGASUS DEB.

Target Orbit TCA Probability of collision Miss distance Type
RESURS O1-N4 SSO 2025-09-16 20:44:34 0.0011512 294.0 (m) PAYLOAD
INTERCOSMOS 24 HEO 2025-04-06 16:30:34 0.0002245189 504.0 (m) PAYLOAD
CZ-4B DEB SSO 2024-06-11 05:52:19 0.0001726366 66.0 (m) DEBRIS

Associated space launch

PEGASUS DEB was lifted into orbit during the mission ‘Pegasus HAPS | Space Test Experiments Platform 2 (STEP-2)’, on board a Pegasus HAPS space rocket.

The launch took place on May 19, 1994, 5:03 p.m. from Edwards Air Force Base.

For more information about the launch, click the button.

Launch to space Pegasus HAPS | Space Test Experiments Platform 2 (STEP-2)
Pegasus HAPS | Space Test Experiments Platform 2 (STEP-2)

Agency: N/A

Status: Launch Successful

Launch date: May 19, 1994, 5:03 p.m. UTC

Rocket: Pegasus HAPS

Launch pad: Edwards Air Force Base

Location: Air launch to orbit

...

Latest news about this satellite

There are no fresh news available about this satellite. Check back as we update our databases every day.


Newsletter sign-up

Weekly statistics, charts and insights to help you stay on top of the space industry.